Wind_Speed
21 23 26 29 31 34 37 39 40 41 42 42 42 43 44 44 44 43 42 40 39 40 40 39 38 37 36 35 33 32 31 30 28 28 27 26 24 24
19 22 24 27 30 33 35 37 40 41 42 43 44 44 45 45 46 45 44 42 41 41 41 40 40 39 38 37 36 35 34 32 31 30 29 28 27 26
18 20 23 25 28 31 33 36 38 40 41 42 44 45 45 46 46 46 47 45 44 43 42 41 41 40 40 39 39 38 37 35 34 33 32 30 29 28
16 18 20 23 26 29 31 33 36 39 41 42 44 46 46 46 47 47 47 47 46 45 45 43 42 41 41 40 40 40 39 38 37 35 34 32 31 30
15 16 18 20 23 25 28 31 33 36 39 41 43 45 46 47 47 48 48 48 48 47 47 46 44 43 42 41 40 40 40 39 38 37 36 35 33 32
14 14 15 16 18 21 24 27 30 33 36 38 41 43 45 46 47 47 47 47 48 48 47 46 46 45 44 43 42 41 41 40 40 38 38 37 36 34
15 14 13 13 14 16 19 22 25 29 32 35 38 41 43 44 45 46 47 48 48 48 48 47 47 46 45 44 43 42 41 40 40 39 39 38 37 35
16 14 12 10 11 13 15 17 20 24 27 30 34 37 41 43 44 45 46 47 47 47 48 48 48 48 46 44 43 42 41 40 40 40 39 38 37 36
16 14 12 11 10 10 12 14 16 18 22 25 29 32 36 39 41 42 44 45 46 46 47 48 49 48 47 45 44 43 42 42 41 40 40 39 38 38
17 15 13 12 11 10 11 11 13 15 18 21 25 28 31 34 37 39 41 43 45 45 45 45 46 47 46 46 46 44 43 42 41 41 40 40 39 39
17 16 14 13 12 11 11 11 12 13 15 17 21 24 28 30 33 36 38 40 42 43 44 44 45 46 46 46 45 45 45 44 43 42 42 40 40 40
18 17 16 14 14 13 12 12 11 11 12 15 17 20 24 27 30 33 35 38 40 41 43 44 44 45 46 45 45 45 45 45 44 44 42 42 42 42
18 17 17 16 15 14 13 12 11 11 11 12 14 17 20 23 27 30 32 34 37 39 40 42 43 44 45 45 44 44 45 44 44 44 43 43 42 43
18 18 17 17 16 15 15 14 13 12 11 11 13 14 17 19 22 26 29 32 34 36 38 40 41 42 43 44 44 43 42 42 43 43 41 41 41 42
18 18 18 18 17 16 15 14 14 13 12 11 12 13 14 16 19 22 25 28 31 33 36 38 39 41 43 43 43 44 43 42 41 41 41 41 41 40
19 19 18 18 18 17 17 16 15 14 13 13 13 13 14 15 16 18 21 23 26 29 31 33 35 38 40 42 42 42 43 42 41 41 41 41 40 39
20 20 19 19 19 18 18 17 16 16 15 15 14 14 15 16 17 18 20 21 23 26 29 31 34 35 37 39 40 41 42 42 42 41 41 40 40 39
21 21 21 20 20 20 20 19 19 18 17 17 17 17 17 17 18 18 19 21 23 24 26 28 31 33 34 35 37 38 39 40 40 39 40 40 39 39
22 22 22 22 22 21 21 21 21 21 20 19 19 19 19 19 19 19 20 21 22 23 25 26 28 30 32 34 35 37 37 38 38 38 38 38 38 38
23 24 24 24 24 24 23 23 23 23 23 23 22 21 21 20 21 21 21 21 21 23 24 25 27 28 29 31 33 35 36 36 37 37 37 39 39 38
26 26 26 26 26 26 26 26 26 26 26 25 25 25 24 23 23 22 22 22 22 23 24 25 26 27 28 28 30 32 35 36 36 37 37 38 38 38
29 29 29 29 29 29 29 29 29 29 29 29 28 28 27 27 26 25 24 24 23 23 23 25 26 26 28 29 29 31 33 34 35 35 36 38 38 38
32 32 32 32 32 32 33 33 33 33 32 32 32 32 31 30 30 29 28 27 26 25 25 26 26 27 28 29 30 31 32 33 34 34 34 35 36 36
Wind_Direction
256 252 248 244 241 238 235 234 233 234 233 233 233 232 230 230 231 231 232 233 234 235 236 238 240 241 242 243 244 247 249 251 255 259 262 264 266 269
264 257 253 249 245 241 239 236 235 234 234 234 233 234 233 231 231 232 233 234 234 235 237 239 239 240 241 243 245 247 249 251 254 257 261 262 264 267
275 266 259 254 250 246 244 241 238 236 235 235 235 236 236 235 234 233 233 235 235 235 236 239 240 241 242 244 246 247 249 251 253 256 259 261 263 265
288 276 267 260 255 250 247 245 242 238 237 237 236 237 237 236 236 235 234 234 235 236 237 239 241 242 243 244 246 247 249 251 253 255 257 258 261 263
304 289 276 267 260 255 251 248 245 242 240 238 238 238 238 237 237 236 236 236 236 236 237 239 240 241 242 244 245 247 248 250 251 254 255 256 259 261
321 307 291 277 267 261 255 251 247 245 243 240 239 238 238 237 237 237 237 236 236 236 237 238 239 241 242 244 245 247 248 249 251 253 254 254 257 258
336 326 311 290 278 270 263 258 253 248 245 243 241 240 239 238 237 236 236 236 235 236 236 237 238 239 241 242 244 246 247 249 250 251 252 253 254 256
348 341 332 314 296 283 272 266 261 253 248 245 243 241 240 239 238 237 236 236 236 237 237 237 238 239 240 241 242 244 246 247 249 249 250 251 252 255
357 352 346 335 317 301 287 277 269 259 252 248 245 242 241 240 239 238 237 236 235 235 236 237 238 238 240 240 241 242 243 245 246 247 249 250 252 255
1 360 355 345 331 318 307 294 282 268 258 252 246 242 240 239 239 238 238 237 236 236 237 238 238 239 240 241 241 242 242 242 243 246 249 250 251 254
357 356 353 348 340 328 318 309 296 280 267 258 250 244 242 242 241 240 239 239 238 238 239 239 239 240 240 240 241 242 243 243 244 245 245 247 250 253
350 351 349 346 344 337 328 319 309 295 280 267 257 249 247 245 243 241 241 240 239 239 240 240 239 239 239 240 240 240 241 242 242 244 246 246 247 249
345 346 345 342 340 339 333 324 317 306 292 279 267 258 252 249 246 244 243 242 241 241 240 240 240 239 240 240 240 240 240 241 242 243 246 246 246 248
338 340 340 339 338 336 335 331 325 316 304 292 281 272 263 256 251 246 244 243 242 241 240 240 240 239 239 239 240 240 239 239 240 241 242 243 244 246
330 331 333 334 334 332 331 329 326 323 315 305 294 284 276 265 259 253 248 245 242 241 241 242 241 240 239 239 239 238 239 239 239 240 241 241 243 244
322 324 325 327 328 328 327 324 321 318 314 306 299 292 287 277 269 262 256 252 248 246 244 242 241 241 241 240 239 239 239 238 237 239 239 239 240 243
314 316 318 320 321 322 322 321 319 315 311 308 302 294 289 284 278 270 264 258 253 250 246 245 244 243 242 241 240 239 238 237 238 239 240 241 241 242
309 310 311 312 314 315 315 314 313 312 310 305 301 296 291 286 282 277 270 263 258 254 251 248 247 245 243 241 240 239 238 237 237 238 240 240 241 241
305 306 306 306 307 307 308 308 308 306 305 303 300 297 294 290 284 281 276 270 263 258 255 251 249 247 244 243 241 239 239 238 239 239 238 238 239 240
303 303 302 302 302 302 301 301 301 301 300 299 298 296 293 290 288 285 280 274 266 259 256 254 251 249 246 244 243 241 240 240 237 237 237 238 237 238
301 300 300 300 299 299 298 297 296 295 294 294 294 294 292 289 288 286 280 276 270 263 257 253 251 248 246 245 244 242 241 241 240 237 236 235 237 236
299 299 299 298 298 297 296 295 294 292 291 290 290 289 289 288 286 284 280 275 270 266 262 257 252 248 247 245 243 242 239 240 240 238 236 236 237 235
297 297 297 296 296 295 294 293 292 290 289 287 286 285 283 282 281 280 278 274 269 266 264 260 256 251 249 245 243 241 240 238 237 236 235 234 235 234
Height
5759 5760 5761 5763 5765 5768 5771 5775 5779 5783 5787 5791 5795 5799 5803 5808 5812 5816 5820 5824 5828 5831 5835 5839 5842 5845 5848 5851 5854 5856 5858 5860 5861 5863 5864 5864 5865 5865
5753 5753 5753 5755 5756 5759 5761 5765 5769 5773 5777 5781 5784 5788 5793 5798 5803 5807 5811 5815 5819 5822 5826 5830 5833 5837 5840 5843 5846 5849 5851 5853 5855 5856 5857 5858 5859 5859
5746 5746 5746 5747 5748 5750 5752 5755 5758 5762 5767 5770 5774 5777 5782 5787 5792 5797 5801 5805 5809 5813 5817 5821 5824 5828 5831 5834 5837 5840 5843 5845 5847 5849 5850 5851 5852 5853
5739 5738 5738 5738 5739 5741 5743 5745 5748 5752 5756 5760 5763 5767 5771 5776 5781 5786 5790 5795 5799 5803 5807 5811 5815 5818 5822 5825 5828 5832 5834 5837 5839 5841 5843 5844 5845 5846
5733 5732 5731 5731 5731 5732 5734 5736 5738 5741 5745 5749 5752 5755 5760 5764 5769 5774 5779 5784 5789 5793 5797 5801 5805 5809 5812 5816 5819 5822 5825 5828 5830 5833 5834 5836 5837 5839
5729 5727 5725 5724 5724 5725 5726 5727 5729 5732 5735 5738 5741 5745 5749 5753 5758 5763 5768 5773 5778 5782 5786 5790 5794 5798 5802 5806 5809 5813 5816 5818 5821 5823 5826 5827 5829 5830
5727 5723 5721 5719 5719 5719 5719 5720 5721 5723 5725 5728 5731 5734 5738 5742 5747 5751 5756 5761 5766 5771 5775 5780 5784 5788 5791 5795 5799 5803 5806 5809 5811 5814 5816 5818 5820 5822
5725 5721 5719 5717 5716 5714 5714 5714 5714 5715 5717 5719 5722 5725 5728 5731 5736 5740 5745 5750 5756 5761 5764 5768 5772 5777 5781 5785 5789 5792 5795 5798 5801 5804 5806 5809 5811 5813
5724 5721 5718 5715 5713 5712 5710 5709 5708 5708 5710 5711 5713 5716 5719 5722 5726 5731 5734 5739 5744 5748 5752 5757 5761 5766 5770 5774 5777 5781 5785 5788 5791 5794 5797 5799 5801 5803
5725 5721 5718 5715 5712 5710 5708 5706 5705 5704 5704 5705 5706 5708 5710 5713 5717 5721 5724 5728 5733 5737 5741 5746 5750 5755 5759 5762 5767 5770 5774 5777 5780 5783 5786 5789 5791 5793
5725 5721 5717 5714 5711 5709 5706 5704 5702 5700 5699 5699 5700 5701 5703 5706 5708 5711 5715 5719 5723 5727 5731 5736 5740 5743 5747 5752 5756 5759 5763 5766 5770 5773 5775 5778 5781 5783
5724 5721 5717 5714 5710 5707 5704 5702 5699 5697 5696 5695 5695 5696 5697 5699 5701 5703 5706 5710 5714 5718 5721 5724 5728 5731 5736 5740 5744 5748 5751 5755 5758 5762 5764 5767 5769 5771
5723 5720 5716 5713 5709 5706 5703 5700 5697 5695 5693 5692 5691 5691 5692 5692 5694 5696 5698 5701 5704 5708 5711 5714 5717 5721 5725 5729 5732 5736 5740 5744 5747 5750 5753 5756 5758 5761
5721 5718 5715 5711 5708 5705 5702 5699 5696 5693 5691 5689 5688 5687 5687 5687 5687 5688 5690 5692 5694 5697 5700 5703 5706 5710 5713 5717 5721 5725 5728 5732 5735 5739 5741 5744 5747 5749
5719 5716 5712 5709 5706 5703 5700 5697 5694 5691 5689 5687 5685 5684 5683 5682 5682 5682 5683 5684 5686 5688 5690 5693 5696 5699 5702 5706 5710 5714 5717 5720 5724 5727 5730 5733 5736 5739
5715 5712 5709 5706 5703 5700 5698 5695 5692 5689 5687 5685 5683 5681 5680 5678 5678 5677 5677 5677 5679 5680 5682 5684 5686 5689 5692 5695 5699 5702 5706 5710 5714 5717 5720 5723 5726 5729
5711 5708 5706 5703 5700 5697 5695 5692 5689 5687 5684 5682 5680 5678 5677 5675 5674 5673 5672 5672 5672 5673 5675 5676 5678 5680 5682 5685 5689 5692 5695 5699 5702 5705 5709 5712 5715 5719
5706 5703 5701 5698 5696 5693 5690 5688 5686 5683 5681 5679 5676 5675 5673 5671 5669 5668 5667 5666 5666 5667 5667 5668 5669 5671 5673 5676 5679 5682 5685 5688 5691 5695 5698 5701 5705 5708
5700 5698 5695 5693 5690 5688 5686 5683 5681 5679 5677 5674 5672 5670 5668 5666 5664 5663 5661 5660 5660 5660 5660 5661 5661 5663 5665 5667 5670 5673 5676 5679 5682 5685 5688 5692 5695 5699
5694 5691 5689 5686 5684 5682 5679 5677 5675 5673 5671 5669 5667 5665 5663 5661 5659 5657 5656 5654 5653 5653 5653 5654 5655 5655 5657 5659 5661 5664 5666 5669 5672 5675 5678 5681 5685 5688
5686 5684 5682 5679 5677 5675 5672 5670 5668 5666 5664 5662 5660 5659 5657 5655 5653 5651 5650 5649 5647 5647 5647 5647 5647 5648 5649 5650 5653 5655 5657 5659 5662 5665 5668 5671 5675 5678
5678 5676 5673 5671 5669 5667 5664 5662 5660 5658 5656 5654 5653 5651 5650 5648 5646 5645 5643 5642 5641 5640 5640 5640 5640 5641 5641 5643 5644 5646 5648 5651 5653 5655 5659 5662 5665 5669
5669 5666 5664 5662 5659 5657 5655 5653 5651 5649 5647 5645 5643 5642 5640 5639 5638 5637 5636 5635 5634 5633 5633 5633 5633 5633 5634 5635 5636 5638 5640 5642 5644 5647 5650 5653 5656 5659